TimeMDT,TemperatureF,Dew PointF,Humidity,Sea Level PressureIn,VisibilityMPH,Wind Direction,Wind SpeedMPH,Gust SpeedMPH,PrecipitationIn,Events,Conditions,WindDirDegrees,DateUTC
12:53 AM,30.9,21.9,69,30.06,10.0,SSW,6.9,-,N/A,,Clear,200,2012-10-19 06:53:00
1:53 AM,30.9,21.9,69,30.06,10.0,SW,6.9,-,N/A,,Clear,220,2012-10-19 07:53:00
2:53 AM,30.9,21.9,69,30.05,10.0,SSW,8.1,-,N/A,,Clear,210,2012-10-19 08:53:00
3:53 AM,28.9,21.9,75,30.04,10.0,SSW,6.9,-,N/A,,Clear,210,2012-10-19 09:53:00
4:53 AM,30.0,21.9,72,30.04,10.0,Calm,Calm,-,N/A,,Clear,0,2012-10-19 10:53:00
5:53 AM,28.0,21.9,78,30.05,10.0,Variable,4.6,-,N/A,,Clear,0,2012-10-19 11:53:00
6:53 AM,27.0,21.0,78,30.06,10.0,SW,4.6,-,N/A,,Clear,220,2012-10-19 12:53:00
7:53 AM,30.9,24.1,76,30.09,9.0,Calm,Calm,-,N/A,,Clear,0,2012-10-19 13:53:00
8:53 AM,41.0,24.1,51,30.09,10.0,West,3.5,-,N/A,,Clear,260,2012-10-19 14:53:00
9:53 AM,50.0,21.0,32,30.05,10.0,WSW,8.1,-,N/A,,Clear,240,2012-10-19 15:53:00
10:53 AM,57.9,19.0,22,30.01,10.0,SW,9.2,-,N/A,,Clear,220,2012-10-19 16:53:00
11:53 AM,62.1,19.9,20,29.96,10.0,SW,5.8,-,N/A,,Clear,230,2012-10-19 17:53:00
12:53 PM,66.9,19.9,17,29.90,10.0,Variable,3.5,-,N/A,,Clear,0,2012-10-19 18:53:00
1:53 PM,71.1,19.0,14,29.84,10.0,Variable,5.8,-,N/A,,Clear,0,2012-10-19 19:53:00
2:53 PM,73.9,19.0,13,29.80,10.0,SSW,6.9,-,N/A,,Clear,210,2012-10-19 20:53:00
3:53 PM,75.9,21.0,13,29.78,10.0,SSE,8.1,-,N/A,,Clear,150,2012-10-19 21:53:00
4:53 PM,70.0,24.1,18,29.77,10.0,ESE,6.9,-,N/A,,Clear,110,2012-10-19 22:53:00
5:53 PM,66.9,26.1,21,29.77,10.0,East,6.9,-,N/A,,Clear,90,2012-10-19 23:53:00
6:53 PM,57.0,28.0,33,29.80,10.0,East,8.1,-,N/A,,Clear,80,2012-10-20 00:53:00
7:53 PM,54.0,28.9,38,29.81,10.0,NE,9.2,-,N/A,,Clear,50,2012-10-20 01:53:00
8:53 PM,53.1,28.9,40,29.78,10.0,Calm,Calm,-,N/A,,Clear,0,2012-10-20 02:53:00
9:53 PM,46.9,30.9,54,29.76,10.0,ENE,6.9,-,N/A,,Clear,60,2012-10-20 03:53:00
10:53 PM,45.0,30.9,58,29.75,10.0,ENE,6.9,-,N/A,,Clear,60,2012-10-20 04:53:00
11:53 PM,43.0,30.0,60,29.74,10.0,Calm,Calm,-,N/A,,Clear,0,2012-10-20 05:53:00